SM4TUV Weather Reports


Display with metric or nautical units.
time (UTC)temp
F
wind
direction
speed
MPH
gust
MPH
rain 1hr
in
rain 24hr
in
rain mn
in
humidity
%
barometer
mb
20260508222330 48 184 7.0 11.0 0.00 0.00 0.00 42 991.3
20260508221429 49 210 8.0 10.0 0.00 0.00 0.00 41 991.2
20260508220529 50 211 11.0 14.0 0.00 0.00 0.00 40 991.2
20260508215629 50 190 12.0 17.0 0.00 0.00 0.00 39 991.0
20260508213829 51 181 14.0 18.0 0.00 0.00 0.00 39 991.0
20260508211129 51 182 16.0 19.0 0.00 0.00 0.00 39 990.7
20260508205329 52 177 13.0 17.0 0.00 0.00 0.00 41 990.7
20260508204429 52 187 11.0 17.0 0.00 0.00 0.00 41 990.5
20260508202630 53 175 5.0 8.0 0.00 0.00 0.00 38 990.4
20260508200829 53 222 6.0 10.0 0.00 0.00 0.00 38 990.3
20260508195929 54 192 6.0 10.0 0.00 0.00 0.00 37 990.2
20260508193229 54 194 5.0 7.0 0.00 0.00 0.00 35 989.9
20260508192330 54 195 5.0 7.0 0.00 0.00 0.00 33 989.8
20260508191429 55 187 5.0 9.0 0.00 0.00 0.00 33 989.7
20260508190529 55 181 5.0 7.0 0.00 0.00 0.00 32 989.7
20260508185629 55 188 5.0 5.0 0.00 0.00 0.00 32 989.7
20260508184729 56 195 6.0 7.0 0.00 0.00 0.00 31 989.6
20260508183829 56 195 6.0 8.0 0.00 0.00 0.00 30 989.6
20260508182029 58 205 7.0 10.0 0.00 0.00 0.00 29 989.4
20260508181130 58 221 9.0 10.0 0.00 0.00 0.00 29 989.4
20260508180229 59 227 8.0 12.0 0.00 0.00 0.00 28 989.4
20260508175330 59 215 8.0 15.0 0.00 0.00 0.00 28 989.3
20260508174429 60 229 9.0 13.0 0.00 0.00 0.00 28 989.3
20260508173529 60 206 8.0 12.0 0.00 0.00 0.00 28 989.0
20260508172629 61 222 8.0 10.0 0.00 0.00 0.00 26 989.0
20260508171729 61 229 8.0 11.0 0.00 0.00 0.00 26 989.0
20260508170829 62 236 6.0 8.0 0.00 0.00 0.00 26 988.9
20260508165929 62 250 7.0 12.0 0.00 0.00 0.00 25 988.8
20260508165029 62 238 8.0 11.0 0.00 0.00 0.00 25 988.9
20260508163229 62 211 8.0 11.0 0.00 0.00 0.00 26 988.8
20260508162330 62 221 9.0 13.0 0.00 0.00 0.00 25 988.8
20260508161429 63 214 10.0 15.0 0.00 0.00 0.00 24 988.7
20260508160529 63 237 9.0 12.0 0.00 0.00 0.00 25 988.8
20260508155629 63 273 7.0 9.0 0.00 0.00 0.00 22 988.8
20260508154729 63 259 8.0 11.0 0.00 0.00 0.00 23 988.9
20260508152929 64 224 6.0 10.0 0.00 0.00 0.00 21 988.9
20260508152029 65 262 7.0 10.0 0.00 0.00 0.00 22 988.8
20260508151130 65 238 7.0 13.0 0.00 0.00 0.00 21 989.0
20260508150229 65 259 6.0 9.0 0.00 0.00 0.00 23 989.1
20260508145329 64 224 9.0 13.0 0.00 0.00 0.00 22 989.1
20260508144430 63 183 10.0 15.0 0.00 0.00 0.00 24 989.1
20260508143529 63 134 12.0 32.0 0.00 0.00 0.00 23 989.2
20260508142629 63 175 7.0 15.0 0.00 0.00 0.00 23 989.2
20260508141729 63 277 6.0 11.0 0.00 0.00 0.00 23 989.3
20260508140829 64 290 6.0 9.0 0.00 0.00 0.00 23 989.3
20260508135929 64 209 7.0 11.0 0.00 0.00 0.00 23 989.4
20260508135029 64 264 8.0 12.0 0.00 0.00 0.00 23 989.4
20260508134129 64 253 10.0 16.0 0.00 0.00 0.00 21 989.7
20260508133229 63 186 12.0 16.0 0.00 0.00 0.00 22 989.6
20260508132329 63 221 11.0 13.0 0.00 0.00 0.00 21 989.7
20260508131429 63 210 9.0 13.0 0.00 0.00 0.00 21 989.7
20260508125629 62 193 9.0 15.0 0.00 0.00 0.00 25 989.7
20260508124729 62 196 12.0 17.0 0.00 0.00 0.00 25 989.8
20260508123829 62 195 8.0 12.0 0.00 0.00 0.00 26 989.7
20260508122929 62 182 11.0 16.0 0.00 0.00 0.00 25 989.8
20260508122029 63 172 8.0 15.0 0.00 0.00 0.00 25 989.9
20260508121129 63 216 9.0 10.0 0.00 0.00 0.00 26 989.9
20260508120229 62 222 6.0 9.0 0.00 0.00 0.00 25 989.9
20260508115329 60 198 9.0 13.0 0.00 0.00 0.00 25 990.0
20260508114429 61 199 11.0 15.0 0.00 0.00 0.00 24 990.0
20260508113529 61 174 9.0 18.0 0.00 0.00 0.00 25 989.9
20260508112629 61 232 7.0 11.0 0.00 0.00 0.00 28 990.1
20260508111729 61 191 8.0 11.0 0.00 0.00 0.00 26 990.2
20260508110829 61 217 12.0 13.0 0.00 0.00 0.00 26 990.3
20260508105929 61 190 7.0 12.0 0.00 0.00 0.00 26 990.2
20260508104130 60 237 7.0 12.0 0.00 0.00 0.00 27 990.2
20260508103229 60 296 7.0 10.0 0.00 0.00 0.00 32 990.2
20260508102330 59 229 7.0 11.0 0.00 0.00 0.00 33 990.4
20260508101429 59 218 6.0 11.0 0.00 0.00 0.00 30 990.4
20260508100529 58 217 5.0 8.0 0.00 0.00 0.00 38 990.4
20260508095629 57 261 5.0 8.0 0.00 0.00 0.00 40 990.4
20260508094729 56 261 5.0 7.0 0.00 0.00 0.00 42 990.6
20260508093830 54 300 5.0 9.0 0.00 0.00 0.00 44 990.7
20260508092929 54 275 6.0 9.0 0.00 0.00 0.00 44 990.7
20260508092029 54 286 5.0 6.0 0.00 0.00 0.00 45 990.7
20260508091129 54 278 5.0 8.0 0.00 0.00 0.00 46 990.7
20260508090229 52 280 6.0 7.0 0.00 0.00 0.00 44 990.9
20260508085330 54 288 5.0 8.0 0.00 0.00 0.00 44 990.7
20260508084429 53 294 4.0 8.0 0.00 0.00 0.00 45 990.9
20260508083529 52 304 5.0 7.0 0.00 0.00 0.00 46 990.9
20260508080830 53 273 3.0 5.0 0.00 0.00 0.00 48 990.9
20260508075929 53 268 3.0 5.0 0.00 0.00 0.00 49 990.8
20260508074129 53 288 4.0 5.0 0.00 0.00 0.00 48 990.8
20260508072330 52 278 3.0 4.0 0.00 0.00 0.00 45 990.9
20260508070529 51 327 3.0 4.0 0.00 0.00 0.00 50 990.6
20260508065629 51 11 3.0 4.0 0.00 0.00 0.00 51 990.5
20260508063830 47 50 4.0 4.0 0.00 0.00 0.00 55 990.6
20260508062929 46 50 4.0 4.0 0.00 0.00 0.00 55 990.5
20260508062029 46 32 4.0 4.0 0.00 0.00 0.00 58 990.7
20260508061129 44 1 5.0 5.0 0.00 0.00 0.00 60 990.7
20260508060229 43 17 4.0 5.0 0.00 0.00 0.00 61 990.6
20260508055329 43 25 3.0 4.0 0.00 0.00 0.00 61 990.7
20260508051729 38 37 4.0 4.0 0.00 0.00 0.00 67 990.3
20260508050830 38 41 3.0 4.0 0.00 0.00 0.00 68 990.3
20260508045929 37 25 4.0 5.0 0.00 0.00 0.00 69 990.3
20260508045029 36 45 5.0 7.0 0.00 0.00 0.00 70 990.3
20260508044129 36 50 6.0 8.0 0.00 0.00 0.00 70 990.3
20260508043229 36 54 5.0 7.0 0.00 0.00 0.00 69 990.2
20260508042330 35 79 5.0 8.0 0.00 0.00 0.00 69 990.1
20260508041429 35 89 5.0 7.0 0.00 0.00 0.00 70 990.1
20260508040529 35 73 5.0 7.0 0.00 0.00 0.00 70 990.1
20260508035629 35 78 5.0 7.0 0.00 0.00 0.00 70 990.0
20260508033830 34 79 5.0 6.0 0.00 0.00 0.00 72 989.9
20260508032929 33 95 5.0 8.0 0.00 0.00 0.00 73 989.9
20260508032030 33 84 4.0 5.0 0.00 0.00 0.00 75 989.8
20260508031129 31 86 4.0 5.0 0.00 0.00 0.00 75 989.7
20260508030229 31 80 5.0 8.0 0.00 0.00 0.00 76 989.6
20260508025329 31 82 5.0 8.0 0.00 0.00 0.00 77 989.5
20260508024429 31 90 5.0 6.0 0.00 0.00 0.00 76 989.5
20260508023530 31 77 6.0 6.0 0.00 0.00 0.00 76 989.4
20260508022629 31 76 5.0 6.0 0.00 0.00 0.00 76 989.4
20260508021729 31 79 6.0 7.0 0.00 0.00 0.00 76 989.3
20260508015929 32 90 5.0 7.0 0.00 0.00 0.00 75 989.2
20260508015029 32 88 6.0 8.0 0.00 0.00 0.00 74 989.1
20260508014129 32 84 6.0 8.0 0.00 0.00 0.00 74 989.2
20260508013230 32 86 5.0 6.0 0.00 0.00 0.00 73 989.3
20260508012329 33 77 5.0 5.0 0.00 0.00 0.00 73 989.2
20260508011429 33 90 4.0 5.0 0.00 0.00 0.00 73 989.1
20260507233530 36 68 5.0 8.0 0.00 0.00 0.00 69 988.4
20260507232630 36 78 4.0 6.0 0.00 0.00 0.00 69 988.3
20260507231729 36 79 4.0 5.0 0.00 0.00 0.00 69 988.3
20260507230830 36 90 4.0 4.0 0.00 0.00 0.00 69 988.2
20260507225929 36 75 4.0 6.0 0.00 0.00 0.00 69 988.1
20260507225029 36 66 4.0 5.0 0.00 0.00 0.00 69 988.0
20260507224130 37 55 5.0 6.0 0.00 0.00 0.00 69 988.0
20260507223229 37 83 5.0 7.0 0.00 0.00 0.00 69 987.7